JYRSH OJAQ-OJAQ

Flight info

Callsign JYRSH
Flight time 1h 48m
Altitude 2000
Route VFR OFF-SHORE
Aircraft B407/L-SBDFGLOTUV/C

Departure

Time 2026-05-05 17:30
Airport King Hussein International Airport (OJAQ)

Arrival

Time 2026-05-05 19:19
Airport King Hussein International Airport (OJAQ)
Time Latitude Longitude Altitude Speed Heading
2026-05-05 17:10 29.60318 35.01840 177 ft 0 kts 232°
2026-05-05 17:29 29.60309 35.01819 182 ft 6 kts 245°
2026-05-05 17:29 29.60199 35.01699 361 ft 65 kts 205°
2026-05-05 17:29 29.59571 35.01462 411 ft 116 kts 206°
2026-05-05 17:30 29.58872 35.01114 580 ft 126 kts 211°
2026-05-05 17:30 29.58239 35.00731 905 ft 120 kts 216°
2026-05-05 17:30 29.57509 35.00315 1298 ft 117 kts 212°
2026-05-05 17:30 29.57061 35.00077 1494 ft 121 kts 207°
2026-05-05 17:31 29.56241 34.99914 1628 ft 136 kts 182°
2026-05-05 17:31 29.55257 34.99688 1775 ft 134 kts 214°
2026-05-05 17:31 29.54463 34.99234 1713 ft 149 kts 197°
2026-05-05 17:31 29.53877 34.99198 1682 ft 155 kts 175°
2026-05-05 17:32 29.53274 34.99410 1665 ft 157 kts 154°
2026-05-05 17:32 29.52298 34.99702 1641 ft 153 kts 191°
2026-05-05 17:32 29.51581 34.99256 1611 ft 144 kts 230°
2026-05-05 17:32 29.50773 34.98687 1563 ft 149 kts 205°
2026-05-05 17:33 29.49972 34.98332 1434 ft 152 kts 205°
2026-05-05 17:33 29.49422 34.98031 1335 ft 149 kts 221°
2026-05-05 17:33 29.49027 34.97526 1206 ft 147 kts 238°
2026-05-05 17:33 29.48268 34.96874 1054 ft 154 kts 206°
2026-05-05 17:34 29.47317 34.96385 924 ft 152 kts 208°
2026-05-05 17:34 29.46360 34.95893 786 ft 152 kts 207°
2026-05-05 17:34 29.45614 34.95468 618 ft 153 kts 216°
2026-05-05 17:34 29.44606 34.95088 372 ft 160 kts 193°
2026-05-05 17:35 29.43641 34.95033 194 ft 161 kts 173°
2026-05-05 17:35 29.42940 34.95182 66 ft 161 kts 169°
2026-05-05 17:35 29.42096 34.95373 278 ft 133 kts 169°
2026-05-05 17:35 29.40862 34.95602 1073 ft 108 kts 178°
2026-05-05 17:36 29.40535 34.95611 1324 ft 97 kts 187°
2026-05-05 17:36 29.39847 34.95555 1562 ft 111 kts 192°
2026-05-05 17:36 29.39092 34.95454 1840 ft 114 kts 192°
2026-05-05 17:36 29.38722 34.95403 1969 ft 115 kts 193°
2026-05-05 17:37 29.37908 34.95277 2038 ft 129 kts 193°
2026-05-05 17:37 29.37431 34.95187 2006 ft 136 kts 194°
2026-05-05 17:37 29.36546 34.95011 2040 ft 137 kts 194°
2026-05-05 17:37 29.35397 34.94782 2002 ft 141 kts 194°
2026-05-05 17:38 29.34452 34.94593 2011 ft 141 kts 194°
2026-05-05 17:38 29.33488 34.94399 2009 ft 141 kts 194°
2026-05-05 17:38 29.32622 34.94225 2010 ft 141 kts 194°
2026-05-05 17:38 29.32052 34.94111 2011 ft 141 kts 194°
2026-05-05 17:39 29.30798 34.93849 2010 ft 140 kts 198°
2026-05-05 17:39 29.29881 34.93574 2012 ft 140 kts 199°
2026-05-05 17:39 29.29290 34.93397 2012 ft 140 kts 199°
2026-05-05 17:39 29.28023 34.93019 2011 ft 140 kts 199°
2026-05-05 17:40 29.27075 34.92736 2011 ft 140 kts 199°
2026-05-05 17:40 29.26580 34.92588 2011 ft 140 kts 199°
2026-05-05 17:40 29.25631 34.92305 2011 ft 140 kts 199°
2026-05-05 17:40 29.25020 34.92122 2011 ft 140 kts 199°
2026-05-05 17:41 29.23877 34.91724 2011 ft 139 kts 203°
2026-05-05 17:41 29.22963 34.91376 2012 ft 139 kts 203°
2026-05-05 17:41 29.22067 34.91036 2011 ft 139 kts 203°
2026-05-05 17:41 29.21174 34.90635 2011 ft 138 kts 207°
2026-05-05 17:42 29.20581 34.90358 2012 ft 138 kts 207°
2026-05-05 17:42 29.19698 34.89947 2011 ft 138 kts 207°
2026-05-05 17:42 29.18553 34.89413 2011 ft 138 kts 207°
2026-05-05 17:42 29.17977 34.89144 2011 ft 138 kts 207°
2026-05-05 17:43 29.17107 34.88738 2011 ft 138 kts 207°
2026-05-05 17:43 29.16131 34.88282 2011 ft 138 kts 207°
2026-05-05 17:43 29.15553 34.88012 2023 ft 139 kts 207°
2026-05-05 17:43 29.14355 34.87451 2007 ft 142 kts 207°
2026-05-05 17:44 29.13491 34.87045 2030 ft 144 kts 206°
2026-05-05 17:44 29.12567 34.86602 2010 ft 146 kts 206°
2026-05-05 17:44 29.11936 34.86298 2011 ft 146 kts 206°
2026-05-05 17:44 29.10692 34.85696 2011 ft 146 kts 207°
2026-05-05 17:45 29.09754 34.85242 2012 ft 146 kts 207°
2026-05-05 17:45 29.09139 34.84943 2012 ft 146 kts 207°
2026-05-05 17:45 29.07887 34.84336 2011 ft 146 kts 207°
2026-05-05 17:45 29.06940 34.83878 2011 ft 146 kts 207°
2026-05-05 17:46 29.05996 34.83420 2011 ft 146 kts 207°
2026-05-05 17:46 29.05059 34.82979 2011 ft 146 kts 206°
2026-05-05 17:46 29.04417 34.82682 2011 ft 146 kts 206°
2026-05-05 17:46 29.03169 34.82105 2011 ft 146 kts 206°
2026-05-05 17:47 29.02538 34.81813 2011 ft 146 kts 206°
2026-05-05 17:47 29.01288 34.81236 2011 ft 146 kts 206°
2026-05-05 17:47 29.00326 34.80791 2011 ft 146 kts 206°
2026-05-05 17:47 28.99381 34.80402 2012 ft 147 kts 201°
2026-05-05 17:48 28.98400 34.80051 2011 ft 148 kts 201°
2026-05-05 17:48 28.97764 34.79826 2011 ft 148 kts 201°
2026-05-05 17:48 28.96457 34.79362 2011 ft 148 kts 201°
2026-05-05 17:48 28.95795 34.79127 2011 ft 148 kts 201°
2026-05-05 17:49 28.94488 34.78663 2011 ft 148 kts 201°
2026-05-05 17:49 28.93508 34.78315 2011 ft 148 kts 201°
2026-05-05 17:49 28.92523 34.77966 2012 ft 148 kts 201°
2026-05-05 17:49 28.91537 34.77616 2016 ft 149 kts 201°
2026-05-05 17:50 28.90551 34.77269 2028 ft 149 kts 199°
2026-05-05 17:50 28.89547 34.76934 2004 ft 150 kts 199°
2026-05-05 17:50 28.88538 34.76597 2012 ft 149 kts 199°
2026-05-05 17:50 28.87548 34.76264 2010 ft 149 kts 199°
2026-05-05 17:51 28.86586 34.75941 1890 ft 147 kts 199°
2026-05-05 17:51 28.85619 34.75613 1706 ft 143 kts 199°
2026-05-05 17:51 28.84706 34.75286 1598 ft 137 kts 207°
2026-05-05 17:51 28.84025 34.74604 1459 ft 129 kts 234°
2026-05-05 17:52 28.83409 34.73860 1315 ft 129 kts 227°
2026-05-05 17:52 28.82802 34.73198 1157 ft 127 kts 226°
2026-05-05 17:52 28.82685 34.73076 1111 ft 126 kts 224°
2026-05-05 17:52 28.82451 34.72854 1059 ft 119 kts 221°
2026-05-05 17:53 28.81894 34.72103 978 ft 64 kts 285°
2026-05-05 17:53 28.82038 34.71862 858 ft 55 kts 340°
2026-05-05 17:53 28.82418 34.72284 526 ft 85 kts 73°
2026-05-05 17:53 28.82411 34.72532 423 ft 92 kts 97°
2026-05-05 17:54 28.82283 34.72794 371 ft 84 kts 137°
2026-05-05 17:54 28.82144 34.72882 360 ft 75 kts 172°
2026-05-05 17:54 28.81986 34.72876 350 ft 67 kts 211°
2026-05-05 17:54 28.81886 34.72813 344 ft 60 kts 241°
2026-05-05 17:55 28.81837 34.72653 353 ft 42 kts 304°
2026-05-05 17:55 28.81856 34.72613 354 ft 39 kts 323°
2026-05-05 17:55 28.81980 34.72545 368 ft 38 kts 348°
2026-05-05 17:55 28.82123 34.72501 397 ft 34 kts 346°
2026-05-05 17:56 28.82293 34.72416 335 ft 24 kts 319°
2026-05-05 17:56 28.82284 34.72342 225 ft 5 kts 298°
2026-05-05 17:56 28.82262 34.72299 140 ft 3 kts 253°
2026-05-05 17:57 28.82263 34.72293 128 ft 1 kts 216°
2026-05-05 17:57 28.82261 34.72290 123 ft 0 kts 184°
2026-05-05 18:06 28.82261 34.72291 123 ft 0 kts 184°
2026-05-05 18:12 28.82258 34.72288 141 ft 1 kts 183°
2026-05-05 18:12 28.82255 34.72283 204 ft 2 kts 166°
2026-05-05 18:12 28.82265 34.72267 304 ft 10 kts 161°
2026-05-05 18:13 28.82267 34.72257 390 ft 8 kts 295°
2026-05-05 18:13 28.82231 34.72217 524 ft 33 kts 185°
2026-05-05 18:13 28.81948 34.72167 541 ft 81 kts 174°
2026-05-05 18:13 28.81438 34.72192 576 ft 112 kts 172°
2026-05-05 18:14 28.80966 34.72227 447 ft 132 kts 179°
2026-05-05 18:14 28.80133 34.72229 415 ft 139 kts 181°
2026-05-05 18:14 28.79181 34.72212 361 ft 142 kts 186°
2026-05-05 18:14 28.78209 34.72058 351 ft 138 kts 194°
2026-05-05 18:15 28.78011 34.72009 402 ft 134 kts 196°
2026-05-05 18:16 28.77761 34.71940 432 ft 133 kts 198°
2026-05-05 18:16 28.77470 34.71849 403 ft 137 kts 200°
2026-05-05 18:16 28.76684 34.71552 345 ft 142 kts 202°
2026-05-05 18:16 28.76252 34.71389 361 ft 140 kts 201°
2026-05-05 18:17 28.75760 34.71223 396 ft 139 kts 199°
2026-05-05 18:17 28.75437 34.71119 396 ft 139 kts 199°
2026-05-05 18:17 28.74308 34.70705 679 ft 123 kts 204°
2026-05-05 18:17 28.73468 34.70401 718 ft 131 kts 201°
2026-05-05 18:18 28.72677 34.70132 712 ft 138 kts 200°
2026-05-05 18:18 28.72506 34.70074 702 ft 140 kts 200°
2026-05-05 18:18 28.71570 34.69727 668 ft 142 kts 203°
2026-05-05 18:18 28.70389 34.69233 580 ft 134 kts 202°
2026-05-05 18:19 28.69932 34.69047 582 ft 118 kts 202°
2026-05-05 18:19 28.69414 34.68856 592 ft 99 kts 201°
2026-05-05 18:19 28.68802 34.68614 370 ft 62 kts 202°
2026-05-05 18:19 28.68652 34.68603 285 ft 41 kts 178°
2026-05-05 18:20 28.68506 34.68578 280 ft 18 kts 273°
2026-05-05 18:20 28.68486 34.68544 291 ft 8 kts 327°
2026-05-05 18:20 28.68584 34.68485 269 ft 21 kts 333°
2026-05-05 18:20 28.68604 34.68485 197 ft 5 kts 321°
2026-05-05 18:21 28.68613 34.68477 181 ft 5 kts 300°
2026-05-05 18:21 28.68618 34.68470 166 ft 1 kts 320°
2026-05-05 18:21 28.68619 34.68467 146 ft 0 kts 282°
2026-05-05 18:34 28.68697 34.68420 200 ft 35 kts 336°
2026-05-05 18:34 28.68962 34.68541 255 ft 75 kts 20°
2026-05-05 18:34 28.69828 34.68813 188 ft 113 kts
2026-05-05 18:35 28.70335 34.68984 197 ft 116 kts 14°
2026-05-05 18:35 28.71299 34.69462 402 ft 114 kts 15°
2026-05-05 18:35 28.72048 34.69796 459 ft 120 kts 13°
2026-05-05 18:35 28.72398 34.69946 466 ft 122 kts 13°
2026-05-05 18:38 28.72586 34.70026 471 ft 123 kts 13°
2026-05-05 18:38 28.73121 34.70243 494 ft 123 kts 11°
2026-05-05 18:38 28.73878 34.70575 683 ft 117 kts 18°
2026-05-05 18:39 28.74613 34.70991 771 ft 121 kts 22°
2026-05-05 18:39 28.75180 34.71358 837 ft 121 kts 20°
2026-05-05 18:39 28.76271 34.71660 794 ft 127 kts
2026-05-05 18:39 28.77123 34.71875 821 ft 126 kts
2026-05-05 18:40 28.77686 34.72046 817 ft 128 kts
2026-05-05 18:40 28.78555 34.72263 810 ft 128 kts
2026-05-05 18:40 28.79395 34.72451 718 ft 119 kts
2026-05-05 18:40 28.80128 34.72621 684 ft 96 kts
2026-05-05 18:41 28.80872 34.72779 718 ft 68 kts 350°
2026-05-05 18:41 28.81267 34.72751 711 ft 55 kts 349°
2026-05-05 18:41 28.81518 34.72697 491 ft 58 kts 336°
2026-05-05 18:41 28.81927 34.72483 365 ft 39 kts 332°
2026-05-05 18:42 28.82062 34.72394 324 ft 27 kts 335°
2026-05-05 18:42 28.82135 34.72353 271 ft 8 kts 341°
2026-05-05 18:42 28.82216 34.72309 202 ft 9 kts 340°
2026-05-05 18:42 28.82231 34.72302 179 ft 5 kts 347°
2026-05-05 18:43 28.82250 34.72295 146 ft 3 kts 348°
2026-05-05 18:43 28.82261 34.72290 123 ft 0 kts
2026-05-05 18:46 28.82271 34.72310 253 ft 11 kts 350°
2026-05-05 18:46 28.82271 34.72315 343 ft 9 kts 287°
2026-05-05 18:47 28.82213 34.72248 466 ft 35 kts 262°
2026-05-05 18:47 28.82117 34.72036 457 ft 78 kts 239°
2026-05-05 18:47 28.81850 34.71706 411 ft 107 kts 226°
2026-05-05 18:47 28.81111 34.71294 405 ft 128 kts 201°
2026-05-05 18:48 28.80277 34.71372 523 ft 128 kts 133°
2026-05-05 18:48 28.80110 34.72203 652 ft 111 kts 59°
2026-05-05 18:48 28.80672 34.72541 829 ft 95 kts 20°
2026-05-05 18:48 28.81257 34.72848 976 ft 98 kts 18°
2026-05-05 18:49 28.81875 34.73138 1115 ft 101 kts 17°
2026-05-05 18:49 28.82466 34.73436 1360 ft 100 kts 30°
2026-05-05 18:49 28.83024 34.74075 1588 ft 106 kts 32°
2026-05-05 18:49 28.83665 34.74630 1502 ft 123 kts 26°
2026-05-05 18:50 28.84132 34.74972 1517 ft 123 kts 23°
2026-05-05 18:50 28.85115 34.75580 1519 ft 125 kts 18°
2026-05-05 18:50 28.85622 34.75852 1520 ft 125 kts 18°
2026-05-05 18:50 28.86290 34.76187 1526 ft 125 kts 17°
2026-05-05 18:51 28.87321 34.76654 1538 ft 126 kts 13°
2026-05-05 18:51 28.87875 34.76880 1538 ft 128 kts 12°
2026-05-05 18:51 28.88710 34.77203 1523 ft 129 kts 11°
2026-05-05 18:51 28.89572 34.77525 1527 ft 129 kts 11°
2026-05-05 18:52 28.90419 34.77832 1525 ft 129 kts 11°
2026-05-05 18:52 28.91256 34.78129 1525 ft 129 kts 10°
2026-05-05 18:52 28.92066 34.78412 1525 ft 129 kts 10°
2026-05-05 18:52 28.92889 34.78696 1525 ft 129 kts 10°
2026-05-05 18:53 28.93762 34.78994 1525 ft 129 kts 10°
2026-05-05 18:53 28.94614 34.79284 1525 ft 129 kts
2026-05-05 18:53 28.95634 34.79629 1525 ft 129 kts
2026-05-05 18:53 28.96205 34.79822 1525 ft 129 kts
2026-05-05 18:54 28.97051 34.80107 1525 ft 129 kts
2026-05-05 18:54 28.97837 34.80594 1515 ft 136 kts 37°
2026-05-05 18:54 28.98494 34.81340 1534 ft 135 kts 36°
2026-05-05 18:54 28.99167 34.82079 1523 ft 135 kts 33°
2026-05-05 18:55 29.00156 34.82889 1526 ft 132 kts 23°
2026-05-05 18:55 29.00969 34.83390 1517 ft 130 kts 18°
2026-05-05 18:55 29.01780 34.83807 1526 ft 128 kts 15°
2026-05-05 18:55 29.02615 34.84180 1524 ft 128 kts 13°
2026-05-05 18:56 29.03171 34.84406 1525 ft 128 kts 12°
2026-05-05 18:56 29.04013 34.84724 1525 ft 127 kts 11°
2026-05-05 18:56 29.04854 34.85021 1525 ft 127 kts
2026-05-05 18:56 29.05603 34.85272 1525 ft 127 kts
2026-05-05 18:57 29.06341 34.85512 1525 ft 127 kts
2026-05-05 18:57 29.07367 34.85836 1525 ft 127 kts
2026-05-05 18:57 29.08476 34.86177 1525 ft 127 kts
2026-05-05 18:57 29.09328 34.86436 1525 ft 127 kts
2026-05-05 18:58 29.10082 34.86660 1533 ft 128 kts
2026-05-05 18:58 29.10476 34.86775 1524 ft 129 kts
2026-05-05 18:58 29.11123 34.86965 1522 ft 129 kts
2026-05-05 18:58 29.11996 34.87222 1525 ft 129 kts
2026-05-05 18:59 29.12869 34.87480 1525 ft 129 kts
2026-05-05 18:59 29.13339 34.87619 1525 ft 129 kts
2026-05-05 18:59 29.14146 34.87857 1525 ft 129 kts
2026-05-05 18:59 29.15271 34.88191 1525 ft 129 kts
2026-05-05 19:00 29.15828 34.88356 1525 ft 129 kts
2026-05-05 19:00 29.16675 34.88606 1525 ft 129 kts
2026-05-05 19:00 29.17526 34.88857 1525 ft 129 kts
2026-05-05 19:00 29.18237 34.89067 1525 ft 129 kts
2026-05-05 19:01 29.19075 34.89314 1525 ft 129 kts
2026-05-05 19:01 29.19892 34.89554 1525 ft 129 kts
2026-05-05 19:01 29.20755 34.89809 1525 ft 129 kts
2026-05-05 19:01 29.21913 34.90150 1525 ft 129 kts
2026-05-05 19:02 29.22428 34.90302 1525 ft 129 kts
2026-05-05 19:02 29.23206 34.90558 1522 ft 131 kts 14°
2026-05-05 19:02 29.23947 34.90910 1527 ft 131 kts 14°
2026-05-05 19:02 29.24744 34.91323 1523 ft 132 kts 19°
2026-05-05 19:03 29.25556 34.91790 1538 ft 133 kts 19°
2026-05-05 19:03 29.26376 34.92260 1521 ft 134 kts 19°
2026-05-05 19:03 29.26893 34.92556 1523 ft 134 kts 19°
2026-05-05 19:03 29.27549 34.93050 1526 ft 136 kts 26°
2026-05-05 19:04 29.28207 34.93569 1527 ft 135 kts 25°
2026-05-05 19:04 29.28942 34.94041 1524 ft 135 kts 21°
2026-05-05 19:04 29.29705 34.94472 1526 ft 133 kts 17°
2026-05-05 19:04 29.30483 34.94863 1525 ft 133 kts 15°
2026-05-05 19:05 29.31285 34.95128 1526 ft 130 kts
2026-05-05 19:05 29.32120 34.95267 1525 ft 131 kts
2026-05-05 19:05 29.32891 34.95398 1524 ft 131 kts
2026-05-05 19:05 29.33680 34.95531 1525 ft 131 kts
2026-05-05 19:06 29.34493 34.95668 1525 ft 131 kts
2026-05-05 19:06 29.35279 34.95762 1516 ft 129 kts 359°
2026-05-05 19:06 29.36086 34.95847 1525 ft 128 kts 359°
2026-05-05 19:06 29.36874 34.95929 1357 ft 125 kts
2026-05-05 19:07 29.37657 34.96024 690 ft 112 kts 357°
2026-05-05 19:07 29.37981 34.96040 511 ft 88 kts 354°
2026-05-05 19:07 29.38451 34.96094 409 ft 54 kts
2026-05-05 19:07 29.39078 34.96447 34 ft 54 kts
2026-05-05 19:08 29.39324 34.96409 26 ft 29 kts 334°
2026-05-05 19:08 29.39405 34.96350 8 ft 7 kts
2026-05-05 19:08 29.39410 34.96350 2 ft 0 kts 13°
2026-05-05 19:08 29.39409 34.96350 2 ft 0 kts 13°
2026-05-05 19:09 29.39446 34.96368 45 ft 20 kts 14°
2026-05-05 19:09 29.39526 34.96458 39 ft 19 kts 128°
2026-05-05 19:10 29.39489 34.96509 8 ft 4 kts 96°
2026-05-05 19:10 29.39487 34.96512 2 ft 0 kts
2026-05-05 19:10 29.39486 34.96514 3 ft 0 kts
2026-05-05 19:10 29.39520 34.96541 136 ft 21 kts 20°
2026-05-05 19:11 29.39629 34.96610 317 ft 48 kts 15°
2026-05-05 19:11 29.39827 34.96688 264 ft 86 kts 14°
2026-05-05 19:11 29.40028 34.96766 260 ft 99 kts 13°
2026-05-05 19:11 29.41465 34.97150 437 ft 109 kts
2026-05-05 19:12 29.42207 34.97181 433 ft 123 kts 357°
2026-05-05 19:12 29.43002 34.97177 273 ft 134 kts 356°
2026-05-05 19:12 29.43707 34.97206 658 ft 110 kts
2026-05-05 19:12 29.44296 34.97298 787 ft 115 kts
2026-05-05 19:13 29.44831 34.97396 1021 ft 107 kts
2026-05-05 19:13 29.45204 34.97448 1033 ft 117 kts 359°
2026-05-05 19:14 29.45641 34.97492 1010 ft 124 kts
2026-05-05 19:14 29.46496 34.97632 986 ft 131 kts
2026-05-05 19:14 29.47154 34.97772 890 ft 136 kts
2026-05-05 19:15 29.47488 34.97848 823 ft 138 kts
2026-05-05 19:15 29.48425 34.98074 647 ft 140 kts
2026-05-05 19:15 29.49304 34.98404 799 ft 126 kts 15°
2026-05-05 19:15 29.49510 34.98506 847 ft 125 kts 17°
2026-05-05 19:16 29.50289 34.98911 834 ft 131 kts 15°
2026-05-05 19:16 29.51153 34.99269 797 ft 132 kts 12°
2026-05-05 19:16 29.53139 34.99862 709 ft 130 kts 356°
2026-05-05 19:16 29.54013 34.99857 666 ft 129 kts 358°
2026-05-05 19:17 29.54846 34.99927 695 ft 124 kts
2026-05-05 19:17 29.55657 35.00136 730 ft 115 kts 11°
2026-05-05 19:17 29.56393 35.00429 738 ft 112 kts 14°
2026-05-05 19:17 29.57096 35.00731 737 ft 109 kts 12°
2026-05-05 19:18 29.57793 35.00938 710 ft 103 kts
2026-05-05 19:18 29.58428 35.01057 634 ft 97 kts
2026-05-05 19:18 29.59011 35.01267 557 ft 82 kts 14°
2026-05-05 19:18 29.59461 35.01454 475 ft 64 kts 14°
2026-05-05 19:19 29.59814 35.01591 362 ft 48 kts 17°
2026-05-05 19:19 29.60025 35.01672 304 ft 28 kts 21°
2026-05-05 19:19 29.60189 35.01753 251 ft 20 kts
2026-05-05 19:19 29.60280 35.01810 207 ft 13 kts 37°
2026-05-05 19:20 29.60298 35.01840 178 ft 0 kts 40°
2026-05-05 19:23 29.60299 35.01847 226 ft 8 kts 20°
2026-05-05 19:23 29.60305 35.01853 300 ft 13 kts
2026-05-05 19:24 29.60322 35.01859 404 ft 17 kts
2026-05-05 19:24 29.60605 35.01920 535 ft 69 kts
2026-05-05 19:24 29.61131 35.02055 568 ft 95 kts 10°
2026-05-05 19:24 29.62688 35.02467 1124 ft 98 kts 16°
2026-05-05 19:25 29.63291 35.02451 1403 ft 95 kts 315°
2026-05-05 19:25 29.63230 35.01764 1401 ft 101 kts 211°
2026-05-05 19:25 29.62879 35.01745 1127 ft 91 kts 140°
2026-05-05 19:25 29.62312 35.02107 556 ft 102 kts 166°
2026-05-05 19:26 29.61671 35.02138 200 ft 84 kts 194°